Location: CNYAC Observatory
(43.2150°N, 74.9500°W)
Time: 15:28:51
(UTC-04:00)

Cosmos 1975 Rocket - Visible Passes

Search period start: 25 June 2016 00:00
Search period end: 05 July 2016 00:00
Orbit: 605 x 634 km, 82.5° (Epoch: 25 June)

Date Brightness Start Highest point End Pass type
(mag) Time Alt. Az. Time Alt. Az. Time Alt. Az.
25 Jun 5.6 00:45:11 10° NE 00:47:06 13° ENE 00:48:58 10° E visible
25 Jun 3.1 02:21:04 10° NNW 02:25:27 63° W 02:26:06 55° SW visible
26 Jun 4.9 01:01:22 10° NNE 01:04:48 22° ENE 01:06:04 19° E visible
26 Jun 3.9 02:38:47 10° NNW 02:42:44 33° W 02:43:12 32° WSW visible
27 Jun 4.0 01:18:16 10° N 01:22:24 38° ENE 01:23:11 35° ESE visible
27 Jun 4.7 02:56:55 10° NW 02:59:57 19° W 03:00:20 18° W visible
28 Jun 3.0 01:35:30 10° N 01:39:54 73° E 01:40:19 67° SE visible
29 Jun 5.4 00:16:53 10° NE 00:18:59 13° ENE 00:20:19 12° E visible
29 Jun 3.1 01:52:58 10° NNW 01:57:18 59° W 01:57:28 59° WSW visible
30 Jun 4.7 00:33:10 10° NNE 00:36:41 23° ENE 00:37:29 22° E visible
30 Jun 4.1 02:10:43 10° NNW 02:14:35 31° W 02:14:38 31° W visible
01 Jul 3.8 00:50:07 10° N 00:54:17 41° ENE 00:54:40 40° E visible
01 Jul 4.9 02:28:54 10° NW 02:31:47 17° W 02:31:48 17° W visible
02 Jul 2.9 01:07:22 10° N 01:11:46 78° E 01:11:51 77° E visible
02 Jul 5.3 23:48:36 10° NE 23:50:53 14° ENE 23:51:55 13° E visible
03 Jul 3.3 01:24:51 10° NNW 01:29:03 55° W 01:29:03 55° W visible
04 Jul 4.6 00:05:00 10° NNE 00:08:34 24° ENE 00:09:07 23° E visible
04 Jul 4.3 01:42:38 10° NNW 01:46:16 29° W 01:46:16 29° W visible
